Showing default

SOLRAD 7B, 1291

Orbit data source: Space-Track

SOLRAD 7B, 1291 is an American payload satellite in LEO that was launched on Tue, 09 Mar 1965 UTC via a THOR SLV-2 AGENA D launch vehicle from the Air Force Western Test Range (AFWTR). Payload-class satellites include a variety of spacecraft equipped with specific instruments for various scientific and technological missions. These include communications satellites like Starlink; space stations such as the ISS; scientific satellites like the Hubble; Earth observation satellites from companies like Planet Labs, Umbra, and HawkEye 360; GPS; miniature CubeSats for education and research; and military/defense satellites.

Loading next visibility...
Identifier
1291, 1965-016D
Orbit
LEO
Country
Flag of USUS
Related business
Manufacturer
NRL
Mission
Defense Science
Bus & Motor
NRL 24", Unknown motor
Mass
47 kg wet, 47 kg dry
Launch date (UTC)
1965-03-09 (61 years ago)
Launch vehicle
THOR SLV-2 AGENA D
Launch site
Air Force Western Test Range (AFWTR)
Object type
Payload
Rocket body
Debris
Shape & HBR
Sphere + 1 Ant, 0.8 m
Radar Cross Section
0.248 m², Medium (>0.1 m² and < 1m²)

Expand to show TLE details & history
Last TLE update: 23 hours ago

TLE from 23 hours ago
0 SOLRAD 7B
1 01291U 65016D   25260.98840956  .00000021  00000-0  54266-4 0  9995
2 01291  70.0769  94.9469 0018658 122.0043 238.2879 13.94926562 78747
Epoch: 2025-09-17T23:43Z
TLE epoch observation values (Epoch: 2025-09-17T23:43:18.585Z)
Latitude
-0.00003°
Longitude
101.96299°
Altitude
920.902 km
Speed
7.388 km/s
True Right ascension
06h 19m 47s
True Declination
0° 00' 00"
Sunlit
Object was in daylight at epoch
Visualization orbit readout
Latitude
Unknown
Longitude
Unknown
Altitude
Unknown
Speed
Unknown
Apparent Right ascension
Unknown
Apparent Declination
Unknown
Sunlit
N/A
Visualization observer readout
Local Sidereal Time
15:12:33
Azimuth
Unknown
Elevation
Unknown
Doppler factor
Unknown
Orbital elements
Apogee altitude
923.05 km
Perigee altitude
895.856 km
Semi-major axis
7,287.59 km
Eccentricity
0.00187
Inclination
70.0769°
RAAN
94.9469°
Arg. of periapsis
122.0043°
True anomaly
238.10624°
Mean anomaly
238.2879°
Eccentric anomaly
238.19705°
Mean motion
3.48873 °/min
Orbital period
103.19 mins
BSTAR
0.000054266
Loading maneuver chart data...
Computing Atmospheric mass density...
Loading historical data...
Loading historical data...
Loading historical data...
Loading historical data...
Loading historical data...
Loading historical data...
Loading historical data...

Documentation

Showing up to 5 results
|